Погода в Гостцах

Россия / Новгородская область     58°19′15″N   31°42′23″E
темп.,
°C
ветер,
м/с
пор.,
м/с
влажн.,
%
обл.,
%
осадки,
мм/ч
давл.,
гПа
погр.,
м
8 марта, пн
пн800:00−6сз71385100 0.1 9941122
03:00−8ссз51188100 0.3 998590
06:00−8ссз51085100 0.1 1001744
09:00−9с61084100 0.1 1004740
12:00−8с5877100 0.1 1007779
15:00−7ссз5870100 0.1 1010884
18:00−8с48727 0.0 1013691
21:00−11с38874 0.0 1015459
9 марта, вт
вт900:00−13с269234 0.0 1016297
03:00−14ссз259433 0.0 1018250
06:00−15с249464 0.0 1019215
09:00−15св128635 0.0 1020234
12:00−11св126540 0.0 1020489
15:00−10ссв125770 0.0 1020604
18:00−10всв2367100 0.0 1020460
21:00−12в4877100 0.0 1022367
10 марта, ср
ср1000:00−14в5976100 0.0 1023429
03:00−16в497983 0.0 1024345
06:00−18в48790 0.0 1025272
09:00−17в47710 0.0 1027249
12:00−11всв366012 0.0 1028363
15:00−8в355224 0.0 1028766
18:00−9всв256934 0.0 1028212
21:00−12в238330 0.0 103082
11 марта, чт
чт1100:00−13вюв248232 0.0 1030110
03:00−14вюв258216 0.0 1030134
06:00−15юв36810 0.0 1029203
09:00−14юв48720 0.0 1029279
12:00−9ююв49540 0.0 1026599
15:00−6ююв510510 0.0 1024799
18:00−7ююв5116826 0.0 1022666
21:00−8ююв6148355 0.0 1020593
12 марта, пт
пт1200:00−9ююв6148276 0.0 1018515
03:00−9ююв6158289 0.0 1014642
06:00−7ююв81777100 0.0 1011787
09:00−6ююв91784100 0.2 10071018
12:00−4ююв91688100 1.3 10051197
15:00−3ю81590100 3.3 10031071
18:00−2ю71494100 1.9 1001806
21:00−1ю61395100 2.8 1000559